When you browse on this site, cookies collect data to enhance your experience and personalize the content and advertising you see.
Visit our Privacy Policy to learn more. By continuing to use the site, you agree to this use of cookies and data.
EN

Hourly Weather Sharm el-Szeikh

Today, 12 July, Sunday

Time Temperature Precipitation Wind Pressure Humidity
00:00 +33°C° 0 mm 5 mps 749 mmHg 31%
01:00 +32°C° 0 mm 5 mps 749 mmHg 36%
02:00 +29°C° 0 mm 5 mps 748 mmHg 42%
03:00 +29°C° 0 mm 5 mps 748 mmHg 43%
04:00 +28°C° 0 mm 5 mps 748 mmHg 44%
05:00 +28°C° 0 mm 4 mps 749 mmHg 45%
06:00 +30°C° 0 mm 4 mps 749 mmHg 38%
07:00 +34°C° 0 mm 4 mps 749 mmHg 31%
08:00 +37°C° 0 mm 4 mps 749 mmHg 24%
09:00 +38°C° 0 mm 4 mps 749 mmHg 24%
10:00 +40°C° 0 mm 4 mps 749 mmHg 23%
11:00 +41°C° 0 mm 5 mps 749 mmHg 23%
12:00 +41°C° 0 mm 5 mps 748 mmHg 22%
13:00 +42°C° 0 mm 5 mps 747 mmHg 21%
14:00 +43°C° 0 mm 5 mps 747 mmHg 19%
15:00 +42°C° 0 mm 5 mps 747 mmHg 19%
16:00 +42°C° 0 mm 5 mps 746 mmHg 19%
17:00 +42°C° 0 mm 4 mps 746 mmHg 19%
18:00 +40°C° 0 mm 4 mps 746 mmHg 21%
19:00 +37°C° 0 mm 4 mps 746 mmHg 23%
20:00 +35°C° 0 mm 4 mps 746 mmHg 25%
21:00 +34°C° 0 mm 4 mps 747 mmHg 26%
22:00 +34°C° 0 mm 4 mps 747 mmHg 27%
23:00 +33°C° 0 mm 4 mps 747 mmHg 29%

Tomorrow, 13 July, Monday

Time Temperature Precipitation Wind Pressure Humidity
00:00 +32°C° 0 mm 5 mps 747 mmHg 31%
01:00 +30°C° 0 mm 5 mps 746 mmHg 33%
02:00 +29°C° 0 mm 5 mps 746 mmHg 35%
03:00 +28°C° 0 mm 5 mps 746 mmHg 36%
04:00 +27°C° 0 mm 5 mps 746 mmHg 37%
05:00 +26°C° 0 mm 4 mps 746 mmHg 38%
06:00 +29°C° 0 mm 4 mps 746 mmHg 30%
07:00 +33°C° 0 mm 4 mps 746 mmHg 22%
08:00 +36°C° 0 mm 4 mps 746 mmHg 15%
09:00 +38°C° 0 mm 4 mps 746 mmHg 16%
10:00 +40°C° 0 mm 5 mps 746 mmHg 16%
11:00 +41°C° 0 mm 5 mps 746 mmHg 17%
12:00 +42°C° 0 mm 5 mps 746 mmHg 17%
13:00 +42°C° 0 mm 5 mps 745 mmHg 17%
14:00 +43°C° 0 mm 5 mps 745 mmHg 17%
15:00 +42°C° 0 mm 5 mps 745 mmHg 17%
16:00 +42°C° 0 mm 5 mps 744 mmHg 18%
17:00 +42°C° 0 mm 5 mps 744 mmHg 19%
18:00 +38°C° 0 mm 4 mps 745 mmHg 22%
19:00 +36°C° 0 mm 4 mps 745 mmHg 25%
20:00 +34°C° 0 mm 3 mps 745 mmHg 28%
21:00 +33°C° 0 mm 3 mps 746 mmHg 28%
22:00 +33°C° 0 mm 3 mps 746 mmHg 27%
23:00 +31°C° 0 mm 3 mps 746 mmHg 26%

Day after tomorrow, 14 July, Tuesday

Time Temperature Precipitation Wind Pressure Humidity
00:00 +32°C° 0 mm 4 mps 746 mmHg 30%
01:00 +30°C° 0 mm 4 mps 746 mmHg 34%
02:00 +29°C° 0 mm 5 mps 746 mmHg 38%
03:00 +29°C° 0 mm 4 mps 747 mmHg 39%
04:00 +28°C° 0 mm 4 mps 747 mmHg 40%
05:00 +28°C° 0 mm 3 mps 747 mmHg 41%
06:00 +31°C° 0 mm 3 mps 747 mmHg 36%
07:00 +34°C° 0 mm 3 mps 748 mmHg 31%
08:00 +37°C° 0 mm 3 mps 748 mmHg 25%
09:00 +38°C° 0 mm 3 mps 748 mmHg 24%
10:00 +39°C° 0 mm 3 mps 748 mmHg 24%
11:00 +40°C° 0 mm 2 mps 748 mmHg 23%
12:00 +40°C° 0 mm 2 mps 748 mmHg 22%
13:00 +41°C° 0 mm 2 mps 747 mmHg 22%
14:00 +41°C° 0 mm 2 mps 747 mmHg 21%
15:00 +41°C° 0 mm 2 mps 747 mmHg 20%
16:00 +41°C° 0 mm 2 mps 747 mmHg 20%
17:00 +42°C° 0 mm 1 mps 747 mmHg 19%
18:00 +38°C° 0 mm 2 mps 747 mmHg 24%
19:00 +35°C° 0 mm 2 mps 748 mmHg 30%
20:00 +31°C° 0 mm 2 mps 748 mmHg 35%
21:00 +31°C° 0 mm 2 mps 748 mmHg 36%
22:00 +30°C° 0 mm 1 mps 749 mmHg 37%
23:00 +30°C° 0 mm 1 mps 749 mmHg 37%

15 July, Wednesday

Time Temperature Precipitation Wind Pressure Humidity
00:00 +30°C° 0 mm 1 mps 749 mmHg 38%
01:00 +30°C° 0 mm 2 mps 749 mmHg 38%
02:00 +30°C° 0 mm 2 mps 749 mmHg 38%
03:00 +29°C° 0 mm 2 mps 749 mmHg 40%
04:00 +29°C° 0 mm 1 mps 749 mmHg 41%
05:00 +29°C° 0 mm 1 mps 750 mmHg 43%
06:00 +31°C° 0 mm 1 mps 750 mmHg 38%
07:00 +35°C° 0 mm 2 mps 750 mmHg 34%
08:00 +37°C° 0 mm 2 mps 750 mmHg 30%
09:00 +38°C° 0 mm 3 mps 750 mmHg 28%
10:00 +40°C° 0 mm 3 mps 750 mmHg 26%
11:00 +42°C° 0 mm 3 mps 750 mmHg 24%
12:00 +43°C° 0 mm 4 mps 749 mmHg 22%
13:00 +44°C° 0 mm 4 mps 749 mmHg 20%
14:00 +45°C° 0 mm 4 mps 749 mmHg 17%
15:00 +45°C° 0 mm 4 mps 748 mmHg 17%
16:00 +46°C° 0 mm 5 mps 748 mmHg 16%
17:00 +46°C° 0 mm 5 mps 748 mmHg 16%
18:00 +42°C° 0 mm 5 mps 748 mmHg 19%
19:00 +40°C° 0 mm 4 mps 749 mmHg 22%
20:00 +37°C° 0 mm 4 mps 749 mmHg 25%
21:00 +36°C° 0 mm 4 mps 749 mmHg 28%
22:00 +35°C° 0 mm 4 mps 749 mmHg 30%
23:00 +34°C° 0 mm 4 mps 749 mmHg 33%

16 July, Thursday

Time Temperature Precipitation Wind Pressure Humidity
00:00 +33°C° 0 mm 4 mps 749 mmHg 35%
01:00 +33°C° 0 mm 4 mps 749 mmHg 36%
02:00 +32°C° 0 mm 4 mps 749 mmHg 38%
03:00 +30°C° 0 mm 4 mps 749 mmHg 38%
04:00 +30°C° 0 mm 4 mps 749 mmHg 39%
05:00 +29°C° 0 mm 4 mps 749 mmHg 40%
06:00 +32°C° 0 mm 4 mps 749 mmHg 36%
07:00 +35°C° 0 mm 5 mps 749 mmHg 32%
08:00 +37°C° 0 mm 5 mps 749 mmHg 27%
09:00 +39°C° 0 mm 5 mps 748 mmHg 26%
10:00 +40°C° 0 mm 5 mps 748 mmHg 26%
11:00 +42°C° 0 mm 5 mps 748 mmHg 25%
12:00 +42°C° 0 mm 5 mps 747 mmHg 23%
13:00 +43°C° 0 mm 5 mps 747 mmHg 22%
14:00 +45°C° 0 mm 5 mps 746 mmHg 21%
15:00 +45°C° 0 mm 5 mps 746 mmHg 20%
16:00 +45°C° 0 mm 5 mps 746 mmHg 19%
17:00 +45°C° 0 mm 5 mps 745 mmHg 18%
18:00 +42°C° 0 mm 5 mps 746 mmHg 21%
19:00 +39°C° 0 mm 5 mps 746 mmHg 24%
20:00 +36°C° 0 mm 4 mps 747 mmHg 26%
21:00 +35°C° 0 mm 5 mps 747 mmHg 29%
22:00 +34°C° 0 mm 6 mps 747 mmHg 31%
23:00 +33°C° 0 mm 6 mps 747 mmHg 33%

17 July, Friday

Time Temperature Precipitation Wind Pressure Humidity
00:00 +32°C° 0 mm 6 mps 747 mmHg 38%
01:00 +30°C° 0 mm 5 mps 747 mmHg 42%
02:00 +29°C° 0 mm 5 mps 747 mmHg 47%
03:00 +28°C° 0 mm 5 mps 747 mmHg 51%
04:00 +28°C° 0 mm 5 mps 747 mmHg 54%
05:00 +27°C° 0 mm 4 mps 747 mmHg 58%
06:00 +29°C° 0 mm 5 mps 747 mmHg 53%
07:00 +32°C° 0 mm 5 mps 747 mmHg 47%
08:00 +34°C° 0 mm 5 mps 748 mmHg 41%
09:00 +35°C° 0 mm 5 mps 747 mmHg 38%
10:00 +37°C° 0 mm 5 mps 747 mmHg 35%
11:00 +39°C° 0 mm 5 mps 747 mmHg 32%
12:00 +40°C° 0 mm 5 mps 747 mmHg 28%
13:00 +41°C° 0 mm 5 mps 746 mmHg 24%
14:00 +43°C° 0 mm 4 mps 746 mmHg 20%
15:00 +42°C° 0 mm 4 mps 746 mmHg 19%
16:00 +42°C° 0 mm 4 mps 746 mmHg 17%
17:00 +42°C° 0 mm 4 mps 746 mmHg 16%
18:00 +39°C° 0 mm 3 mps 746 mmHg 21%
19:00 +36°C° 0 mm 3 mps 746 mmHg 26%
20:00 +32°C° 0 mm 2 mps 747 mmHg 31%
21:00 +31°C° 0 mm 3 mps 747 mmHg 32%
22:00 +31°C° 0 mm 3 mps 747 mmHg 33%
23:00 +30°C° 0 mm 3 mps 747 mmHg 34%
Show more